Hopewell, New Jersey, United States (08525)
Lat: 40.39N, Lon: 74.76W
Wx Zone: NJZ015
Local Info
Past Weather Observations for Wednesday, October 22, 2014

NOTE: This archive is for the closest National Weather Service station to Hopewell. Information may differ from the station used for current weather conditions.

Click here for Long-term Archive

Time Weather Temperature Dewpoint Humidity Pressure Winds Precip Visibility
23:53
Overcast
52°F / 11°C 46°F / 8°C 82% 29.74 in
(1007 mb)
NNW 11.5 mph
(NNW 19 kph)
0.01 in
(0.25 mm)
10SM
22:53
Overcast
Light Rain
52°F / 11°C 46°F / 8°C 82% 29.74 in
(1007 mb)
N 9.2 mph
(N 15 kph)
0.10 in
(2.54 mm)
6SM
22:50
Overcast
Rain
52°F / 11°C 46°F / 8°C 82% 29.74 in
(1007 mb)
N 9.2 mph
(N 15 kph)
0.09 in
(2.29 mm)
5SM
22:43
Overcast
Rain
52°F / 11°C 48°F / 9°C 88% 29.77 in
(1008 mb)
N 9.2 mph
(N 15 kph)
0.09 in
(2.29 mm)
2 1/2SM
21:53
Overcast
Light Rain
54°F / 12°C 46°F / 8°C 77% 29.77 in
(1008 mb)
N 11.5 mph
(N 19 kph)
0.02 in
(0.51 mm)
9SM
20:53
Overcast
Light Rain
54°F / 12°C 48°F / 9°C 82% 29.8 in
(1009 mb)
N 10.4 mph
(N 17 kph)
0.03 in
(0.76 mm)
7SM
20:36
Overcast
Light Rain
54°F / 12°C 48°F / 9°C 82% 29.8 in
(1009 mb)
N 13.8 mph
(N 22 kph)
0.01 in
(0.25 mm)
9SM
19:53
Overcast
Light Rain
54°F / 12°C 48°F / 9°C 82% 29.8 in
(1009 mb)
NNW 8.1 mph
(NNW 13 kph)
0.02 in
(0.51 mm)
10SM
18:53
Overcast
Light Rain
54°F / 12°C 48°F / 9°C 82% 29.83 in
(1010 mb)
NNW 8.1 mph
(NNW 13 kph)
0.13 in
(3.30 mm)
7SM
17:53
Overcast
Light Rain
54°F / 12°C 48°F / 9°C 82% 29.83 in
(1010 mb)
N 8.1 mph
(N 13 kph)
0.08 in
(2.03 mm)
6SM
17:35
Overcast
Rain
54°F / 12°C 48°F / 9°C 82% 29.83 in
(1010 mb)
N 9.2 mph
(N 15 kph)
0.05 in
(1.27 mm)
3SM
17:07
Overcast
Light Rain
54°F / 12°C 48°F / 9°C 82% 29.83 in
(1010 mb)
N 8.1 mph
(N 13 kph)
0.00 in
(0.00 mm)
7SM
16:53
Overcast
Light Rain
55°F / 13°C 46°F / 8°C 72% 29.83 in
(1010 mb)
N 8.1 mph
(N 13 kph)
0.00 in
(0.00 mm)
10SM
15:53
Overcast
55°F / 13°C 46°F / 8°C 72% 29.83 in
(1010 mb)
N 10.4 mph
(N 17 kph)
0.00 in
(0.00 mm)
10SM
15:44
Overcast
55°F / 13°C 48°F / 9°C 77% 29.83 in
(1010 mb)
N 11.5 mph
(N 19 kph)
0.00 in
(0.00 mm)
10SM
14:53
Overcast
55°F / 13°C 46°F / 8°C 72% 29.86 in
(1011 mb)
N 11.5 mph
(N 19 kph)
0.01 in
(0.25 mm)
10SM
13:53
Overcast
Light Rain
55°F / 13°C 48°F / 9°C 77% 29.86 in
(1011 mb)
N 11.5 mph
(N 19 kph)
0.00 in
(0.00 mm)
10SM
12:53
Overcast
55°F / 13°C 48°F / 9°C 77% 29.89 in
(1012 mb)
N 10.4 mph
(N 17 kph)
- 10SM
11:53
Overcast
57°F / 14°C 48°F / 9°C 72% 29.89 in
(1012 mb)
NE 13.8 mph
(NE 22 kph)
- 10SM
10:53
Overcast
55°F / 13°C 48°F / 9°C 77% 29.92 in
(1013 mb)
NE 6.9 mph
(NE 11 kph)
- 10SM
09:53
Overcast
55°F / 13°C 48°F / 9°C 77% 29.92 in
(1013 mb)
NE 11.5 mph
(NE 19 kph)
0.00 in
(0.00 mm)
10SM
08:53
Overcast
55°F / 13°C 50°F / 10°C 82% 29.92 in
(1013 mb)
N 8.1 mph
(N 13 kph)
0.00 in
(0.00 mm)
10SM
08:02
Overcast
Light Rain
55°F / 13°C 52°F / 11°C 88% 29.92 in
(1013 mb)
NNE 8.1 mph
(NNE 13 kph)
0.00 in
(0.00 mm)
10SM
07:53
Overcast
55°F / 13°C 50°F / 10°C 82% 29.92 in
(1013 mb)
NNE 11.5 mph
(NNE 19 kph)
0.04 in
(1.02 mm)
10SM
06:53
Overcast
Light Rain
54°F / 12°C 52°F / 11°C 94% 29.92 in
(1013 mb)
NE 11.5 mph
(NE 19 kph)
0.08 in
(2.03 mm)
6SM
06:41
Overcast
Light Rain
55°F / 13°C 52°F / 11°C 88% 29.92 in
(1013 mb)
NE 11.5 mph
(NE 19 kph)
0.07 in
(1.78 mm)
6SM
05:53
Overcast
Light Rain
55°F / 13°C 52°F / 11°C 88% 29.89 in
(1012 mb)
NNE 9.2 mph
(NNE 15 kph)
0.00 in
(0.00 mm)
10SM
04:53
Overcast
Light Rain
57°F / 14°C 52°F / 11°C 82% 29.89 in
(1012 mb)
N 8.1 mph
(N 13 kph)
0.00 in
(0.00 mm)
10SM
04:25
Overcast
57°F / 14°C 52°F / 11°C 82% 29.89 in
(1012 mb)
N 6.9 mph
(N 11 kph)
- 10SM
03:53
Overcast
57°F / 14°C 52°F / 11°C 82% 29.86 in
(1011 mb)
NNE 8.1 mph
(NNE 13 kph)
- 10SM
02:53
Overcast
55°F / 13°C 52°F / 11°C 88% 29.86 in
(1011 mb)
Calm - 10SM
02:04
Mostly Cloudy
54°F / 12°C 50°F / 10°C 88% 29.86 in
(1011 mb)
NW 5.8 mph
(NW 9 kph)
- 10SM
01:53
Mostly Cloudy
54°F / 12°C 50°F / 10°C 88% 29.86 in
(1011 mb)
NW 5.8 mph
(NW 9 kph)
- 10SM
00:53
Partly Cloudy
52°F / 11°C 48°F / 9°C 88% 29.89 in
(1012 mb)
N 5.8 mph
(N 9 kph)
- 9SM
Time Weather Temperature Dewpoint Humidity Pressure Winds Precip Visibility


Weather for websites

WeatherForYou.com, LLC is not responsible for any damages or problems caused by this service. Current weather conditions are obtained from the closest station including government and personal stations which may have varying degrees of accuracy. Weather forecasts are derived from the NOAA NDFD. Like all things, this site belongs to Jesus Christ... He just trusts me to maintain it. If you have any questions or comments email webmaster@weatherforyou.com

Copyright © 2014, WeatherForYou.com LLC. All rights reserved.